This is the latest recevied weather packets stored in our database for station/object DB0WUN-13. If no packets are shown the sender has not sent any weather packets the latest 10 day(s).
| Time | Temp. | Humidity | Pressure | Rain* | Wind** | Luminosity | Snow |
|---|---|---|---|---|---|---|---|
| 1777722370 | 22.22° C | 29% | 1021.9 hPa | 0 mm | - | 896 W/m² | - |
| 1777722319 | 22.22° C | 29% | 1021.9 hPa | 0 mm | - | 898 W/m² | - |
| 1777722247 | 22.22° C | 28% | 1022 hPa | 0 mm | - | 900 W/m² | - |
| 1777722181 | 22.22° C | 28% | 1021.9 hPa | 0 mm | - | 900 W/m² | - |
| 1777722122 | 22.22° C | 28% | 1022 hPa | 0 mm | - | 902 W/m² | - |
| 1777722066 | 22.22° C | 28% | 1022.1 hPa | 0 mm | - | 909 W/m² | - |
| 1777722003 | 22.22° C | 27% | 1022 hPa | 0 mm | - | 909 W/m² | - |
| 1777721943 | 22.22° C | 29% | 1022.1 hPa | 0 mm | - | 907 W/m² | - |
| 1777721870 | 21.67° C | 29% | 1022.1 hPa | 0 mm | - | 911 W/m² | - |
| 1777721810 | 21.67° C | 32% | 1022 hPa | 0 mm | - | 911 W/m² | - |
| 1777721751 | 21.67° C | 32% | 1022 hPa | 0 mm | - | 912 W/m² | - |
| 1777721691 | 21.67° C | 33% | 1022.1 hPa | 0 mm | - | 911 W/m² | - |
| 1777721639 | 21.67° C | 33% | 1022 hPa | 0 mm | - | 911 W/m² | - |
| 1777721566 | 21.67° C | 33% | 1022.1 hPa | 0 mm | - | 909 W/m² | - |
| 1777721506 | 21.11° C | 32% | 1022.1 hPa | 0 mm | - | 905 W/m² | - |
| 1777721445 | 21.11° C | 32% | 1022.2 hPa | 0 mm | - | 909 W/m² | - |
| 1777721383 | 21.67° C | 33% | 1022.2 hPa | 0 mm | - | 905 W/m² | - |
| 1777721324 | 21.67° C | 32% | 1022.2 hPa | 0 mm | - | 911 W/m² | - |
| 1777721257 | 21.67° C | 32% | 1022.2 hPa | 0 mm | - | 909 W/m² | - |
| 1777721197 | 21.67° C | 34% | 1022.2 hPa | 0 mm | - | 907 W/m² | - |
| 1777721138 | 21.67° C | 34% | 1022.3 hPa | 0 mm | - | 909 W/m² | - |
| 1777721079 | 21.11° C | 34% | 1022.2 hPa | 0 mm | - | 907 W/m² | - |
| 1777721018 | 21.11° C | 35% | 1022.2 hPa | 0 mm | - | 904 W/m² | - |
| 1777720957 | 21.11° C | 35% | 1022.3 hPa | 0 mm | - | 902 W/m² | - |
| 1777720897 | 21.11° C | 33% | 1022.3 hPa | 0 mm | - | 902 W/m² | - |
* Rain latest hour (hover to see other rain measurements)
** Current wind speed in m/s (hover to see current wind gust speed)